PORTS® Data Listing: 8771341 Galveston Bay Entrance, North Jetty,

CO-OPS RAW PORTS DATA

************************      PRELIMINARY DATA      ************************** 

     THIS RAW DATA HAS NOT BEEN SUBJECT TO THE NATIONAL OCEAN SERVICE'S        
     QUALITY CONTROL OR QUALITY ASSURANCE PROCEDURES AND DOES NOT MEET         
     THE CRITERIA AND STANDARDS OF OFFICIAL NATIONAL OCEAN SERVICE             
     DATA.  IT IS RELEASED FOR LIMITED PUBLIC USE AS PRELIMINARY DATA TO       
     BE USED ONLY WITH APPROPRIATE CAUTION.                                    

************************      PRELIMINARY DATA      ************************** 


       CD   -   Calendar date
       T    -   Time
       TZ   -   Timezone
       PW   -   Predicted water level (feet above MLLW)
       OW   -   Observed water level (feet above MLLW)
       WS   -   Wind speed (knots)
       WD   -   Wind direction (degrees true)
       WG   -   Wind gust (knots)
       AT   -   Air temperature (degrees farenheit)
       WT   -   Water temperature (degrees farenheit)
       AP   -   Air pressure (millibars)
       SA   -   Salinty (PSU - Practical Salinity Units)
       SG   -   Specific gravity
       RH   -   Relative humidity
       AG   -   Air gap (feet)
       VI   -   Visibility (nautical miles)

       ** NOTE **
       A variable that has its data fields filled with "9"s, indicates that
       data was not collected for that sample period.
       **********


STATION NAME: Galveston Bay Entrance (8771341)
****************************************************************************************************
    CD       T    TZ    PW     OW    WS   WD   WG    AT    WT    AP    SA    SG     RH    AG   VI
****************************************************************************************************
2020/01/18 05:18 CST   -0.18   1.16    4  155    5  66.6  64.8 1019.1 -9.9 -9.999 -99.9 -99.99 -9.99
2020/01/18 05:24 CST   -0.17   1.18    4  155    6  66.6  64.8 1019.2 -9.9 -9.999 -99.9 -99.99 -9.99
2020/01/18 05:30 CST   -0.16   1.18    4  151    5  66.4  64.8 1019.1 -9.9 -9.999 -99.9 -99.99 -9.99
2020/01/18 05:36 CST   -0.15   1.19    4  152    5  66.6  64.8 1019.2 -9.9 -9.999 -99.9 -99.99 -9.99
2020/01/18 05:42 CST   -0.14   1.20    4  157    5  66.4  64.9 1019.4 -9.9 -9.999 -99.9 -99.99 -9.99
2020/01/18 05:48 CST   -0.13   1.22    3  158    4  66.6  64.9 1019.5 -9.9 -9.999 -99.9 -99.99 -9.99
2020/01/18 05:54 CST   -0.12   1.25    3  156    4  66.6  64.9 1019.5 -9.9 -9.999 -99.9 -99.99 -9.99
2020/01/18 06:00 CST   -0.10   1.26    4  161    5  66.9  64.9 1019.5 -9.9 -9.999 -99.9 -99.99 -9.99
2020/01/18 06:06 CST   -0.09   1.25    3  160    4  66.7  64.9 1019.6 -9.9 -9.999 -99.9 -99.99 -9.99
2020/01/18 06:12 CST   -0.07   1.28    3  161    4  66.7  64.8 1019.7 -9.9 -9.999 -99.9 -99.99 -9.99
2020/01/18 06:18 CST   -0.05   1.29    4  160    4  66.4  64.8 1019.6 -9.9 -9.999 -99.9 -99.99 -9.99
2020/01/18 06:24 CST   -0.03   1.28    3  161    4  66.4  64.8 1019.6 -9.9 -9.999 -99.9 -99.99 -9.99
2020/01/18 06:30 CST   -0.02   1.31    3  160    4  66.4  64.8 1019.6 -9.9 -9.999 -99.9 -99.99 -9.99
2020/01/18 06:36 CST    0.01   1.31    5  159    5  66.4  64.6 1019.6 -9.9 -9.999 -99.9 -99.99 -9.99
2020/01/18 06:42 CST    0.03   1.33    5  156    6  66.7  64.2 1019.6 -9.9 -9.999 -99.9 -99.99 -9.99
2020/01/18 06:48 CST    0.05   1.37    4  156    6  66.4  64.0 1019.6 -9.9 -9.999 -99.9 -99.99 -9.99
2020/01/18 06:54 CST    0.07   1.36    7  154    7  66.6  64.0 1019.5 -9.9 -9.999 -99.9 -99.99 -9.99
2020/01/18 07:00 CST    0.09   1.38    8  156    9  67.3  64.0 1019.3 -9.9 -9.999 -99.9 -99.99 -9.99
2020/01/18 07:06 CST    0.12   1.38    9  152   11  68.0  63.9 1019.2 -9.9 -9.999 -99.9 -99.99 -9.99
2020/01/18 07:12 CST    0.14   1.39    9  150   11  67.8  63.9 1019.1 -9.9 -9.999 -99.9 -99.99 -9.99
2020/01/18 07:18 CST    0.17   1.41   10  157   12  68.2  63.9 1019.1 -9.9 -9.999 -99.9 -99.99 -9.99
2020/01/18 07:24 CST    0.19   1.43   11  160   12  68.4  63.7 1019.3 -9.9 -9.999 -99.9 -99.99 -9.99
2020/01/18 07:30 CST    0.22   1.44   10  156   12  67.3  63.7 1019.3 -9.9 -9.999 -99.9 -99.99 -9.99
2020/01/18 07:36 CST    0.25   1.52    9  157   11  66.6  63.7 1019.4 -9.9 -9.999 -99.9 -99.99 -9.99
2020/01/18 07:42 CST    0.27   1.55    9  161   10  66.0  63.7 1019.6 -9.9 -9.999 -99.9 -99.99 -9.99
2020/01/18 07:48 CST    0.30   1.57   10  166   11  66.2  63.7 1019.6 -9.9 -9.999 -99.9 -99.99 -9.99
2020/01/18 07:54 CST    0.33   1.60   11  168   12  66.4  63.7 1019.6 -9.9 -9.999 -99.9 -99.99 -9.99
2020/01/18 08:00 CST    0.35   1.58   11  171   12  66.4  63.7 1019.7 -9.9 -9.999 -99.9 -99.99 -9.99
2020/01/18 08:06 CST    0.38   1.64   10  172   11  66.6  63.7 1019.8 -9.9 -9.999 -99.9 -99.99 -9.99
2020/01/18 08:12 CST    0.41   1.62    9  171   10  66.7  63.7 1019.8 -9.9 -9.999 -99.9 -99.99 -9.99
2020/01/18 08:18 CST    0.43   1.65   10  172   12  66.9  63.7 1019.9 -9.9 -9.999 -99.9 -99.99 -9.99
2020/01/18 08:24 CST    0.46   1.68   10  174   11  66.9  63.7 1019.9 -9.9 -9.999 -99.9 -99.99 -9.99
2020/01/18 08:30 CST    0.48   1.71   11  177   13  67.5  63.7 1020.0 -9.9 -9.999 -99.9 -99.99 -9.99
2020/01/18 08:36 CST    0.51   1.76   10  176   11  67.1  63.7 1020.1 -9.9 -9.999 -99.9 -99.99 -9.99
2020/01/18 08:42 CST    0.53   1.79   10  175   11  67.5  63.7 1020.2 -9.9 -9.999 -99.9 -99.99 -9.99
2020/01/18 08:48 CST    0.56   1.81    8  168   10  67.1  63.7 1020.2 -9.9 -9.999 -99.9 -99.99 -9.99
2020/01/18 08:54 CST    0.58   1.83    8  159    9  67.1  63.7 1020.2 -9.9 -9.999 -99.9 -99.99 -9.99
2020/01/18 09:00 CST    0.60   1.88    8  165    9  66.6  63.7 1020.4 -9.9 -9.999 -99.9 -99.99 -9.99
2020/01/18 09:06 CST    0.63   1.86    9  164    9  66.9  63.7 1020.5 -9.9 -9.999 -99.9 -99.99 -9.99
2020/01/18 09:12 CST    0.65   1.89    7  169    9  66.9  63.7 1020.7 -9.9 -9.999 -99.9 -99.99 -9.99
2020/01/18 09:18 CST    0.67   1.87    8  160    8  66.7  63.7 1020.6 -9.9 -9.999 -99.9 -99.99 -9.99
2020/01/18 09:24 CST    0.69   1.89    7  165    9  68.0  63.7 1020.8 -9.9 -9.999 -99.9 -99.99 -9.99
2020/01/18 09:30 CST    0.71   1.97    7  159   10  67.1  63.7 1020.9 -9.9 -9.999 -99.9 -99.99 -9.99
2020/01/18 09:36 CST    0.73   1.97    7  156    9  67.3  63.7 1020.9 -9.9 -9.999 -99.9 -99.99 -9.99
2020/01/18 09:42 CST    0.75   2.01    6  160    8  66.9  63.7 1021.0 -9.9 -9.999 -99.9 -99.99 -9.99
2020/01/18 09:48 CST    0.77   2.06    6  162    7  66.9  63.7 1021.0 -9.9 -9.999 -99.9 -99.99 -9.99
2020/01/18 09:54 CST    0.79   2.06    6  162    7  66.7  63.7 1020.9 -9.9 -9.999 -99.9 -99.99 -9.99
2020/01/18 10:00 CST    0.81   2.08    8  164    9  67.1  63.7 1020.8 -9.9 -9.999 -99.9 -99.99 -9.99
2020/01/18 10:06 CST    0.82   2.09    7  162    9  67.1  63.7 1020.9 -9.9 -9.999 -99.9 -99.99 -9.99
2020/01/18 10:12 CST    0.84   2.09    8  162    9  67.5  63.7 1020.9 -9.9 -9.999 -99.9 -99.99 -9.99
2020/01/18 10:18 CST    0.85   2.13    9  162   11  67.6  63.7 1020.9 -9.9 -9.999 -99.9 -99.99 -9.99
2020/01/18 10:24 CST    0.87   2.14    7  168    9  67.1  63.7 1021.0 -9.9 -9.999 -99.9 -99.99 -9.99
2020/01/18 10:30 CST    0.88   2.17    8  164   10  67.5  63.7 1021.0 -9.9 -9.999 -99.9 -99.99 -9.99
2020/01/18 10:36 CST    0.89   2.16    8  165   10  67.5  63.7 1020.9 -9.9 -9.999 -99.9 -99.99 -9.99
2020/01/18 10:42 CST    0.91   2.19    8  164    9  66.7  63.7 1020.9 -9.9 -9.999 -99.9 -99.99 -9.99
2020/01/18 10:48 CST    0.92   2.21    7  164    8  66.4  63.7 1020.9 -9.9 -9.999 -99.9 -99.99 -9.99
2020/01/18 10:54 CST    0.93   2.20    6  175    8  66.4  63.7 1020.9 -9.9 -9.999 -99.9 -99.99 -9.99
2020/01/18 11:00 CST    0.94   2.20    6  180    7  66.9  63.7 1020.9 -9.9 -9.999 -99.9 -99.99 -9.99
2020/01/18 11:06 CST    0.94   2.21    6  176    7  66.4  63.7 1020.8 -9.9 -9.999 -99.9 -99.99 -9.99
2020/01/18 11:12 CST    0.95   2.24    6  175    8  66.6  63.5 1020.8 -9.9 -9.999 -99.9 -99.99 -9.99
2020/01/18 11:18 CST    0.96   2.26    7  177    8  66.7  63.5 1020.8 -9.9 -9.999 -99.9 -99.99 -9.99
2020/01/18 11:24 CST    0.96   2.25    8  174    9  67.3  63.7 1020.7 -9.9 -9.999 -99.9 -99.99 -9.99
2020/01/18 11:30 CST    0.97   2.24    8  178    9  66.7  63.7 1020.6 -9.9 -9.999 -99.9 -99.99 -9.99
2020/01/18 11:36 CST    0.97   2.26    6  177    8  66.4  63.7 1020.6 -9.9 -9.999 -99.9 -99.99 -9.99
2020/01/18 11:42 CST    0.98   2.29    7  181    7  66.6  63.7 1020.6 -9.9 -9.999 -99.9 -99.99 -9.99
2020/01/18 11:48 CST    0.98   2.29    6  184    7  66.6  63.7 1020.5 -9.9 -9.999 -99.9 -99.99 -9.99
2020/01/18 11:54 CST    0.98   2.23    6  183    6  66.7  63.7 1020.4 -9.9 -9.999 -99.9 -99.99 -9.99
2020/01/18 12:00 CST    0.98   2.27    8  174    9  68.2  63.7 1020.2 -9.9 -9.999 -99.9 -99.99 -9.99
2020/01/18 12:06 CST    0.98   2.24    7  172    9  67.3  63.7 1020.1 -9.9 -9.999 -99.9 -99.99 -9.99
2020/01/18 12:12 CST    0.98   2.25    7  168    8  67.3  63.7 1019.9 -9.9 -9.999 -99.9 -99.99 -9.99
2020/01/18 12:18 CST    0.98   2.24    6  169    8  67.5  63.7 1019.8 -9.9 -9.999 -99.9 -99.99 -9.99
2020/01/18 12:24 CST    0.97   2.22    6  166    8  67.5  63.9 1019.6 -9.9 -9.999 -99.9 -99.99 -9.99
2020/01/18 12:30 CST    0.97   2.25    6  171    7  67.3  63.9 1019.4 -9.9 -9.999 -99.9 -99.99 -9.99
2020/01/18 12:36 CST    0.97   2.22    6  176    8  67.3  63.9 1019.2 -9.9 -9.999 -99.9 -99.99 -9.99
2020/01/18 12:42 CST    0.96   2.23    6  175    8  68.2  63.9 1019.1 -9.9 -9.999 -99.9 -99.99 -9.99
2020/01/18 12:48 CST    0.96   2.25    7  172    8  68.4  63.9 1019.1 -9.9 -9.999 -99.9 -99.99 -9.99
2020/01/18 12:54 CST    0.95   2.22    9  168   10  69.4  63.9 1018.9 -9.9 -9.999 -99.9 -99.99 -9.99
2020/01/18 13:00 CST    0.95   2.20 -999 -999 -999 -99.9 -99.9 -999.9 -9.9 -9.999 -99.9 -99.99 -9.99
2020/01/18 13:06 CST    0.94   2.22    7  175    8  68.7  63.9 1018.6 -9.9 -9.999 -99.9 -99.99 -9.99
2020/01/18 13:12 CST    0.93   2.18    9  165   11  68.9  63.9 1018.4 -9.9 -9.999 -99.9 -99.99 -9.99
2020/01/18 13:18 CST    0.93   2.16    8  175   11  68.0  63.9 1018.4 -9.9 -9.999 -99.9 -99.99 -9.99
2020/01/18 13:24 CST    0.92   2.11    7  180    8  67.3  63.9 1018.5 -9.9 -9.999 -99.9 -99.99 -9.99
2020/01/18 13:30 CST    0.91   2.12    7  165    8  67.8  64.0 1018.6 -9.9 -9.999 -99.9 -99.99 -9.99
2020/01/18 13:36 CST    0.90   2.13    8  149    9  68.0  64.0 1018.5 -9.9 -9.999 -99.9 -99.99 -9.99
2020/01/18 13:42 CST    0.89   2.12    6  161    7  68.0  64.0 1018.4 -9.9 -9.999 -99.9 -99.99 -9.99
2020/01/18 13:48 CST    0.89   2.12    4  183    6  67.6  64.0 1018.4 -9.9 -9.999 -99.9 -99.99 -9.99
2020/01/18 13:54 CST    0.88   2.13    4  190    5  67.5  63.9 1018.4 -9.9 -9.999 -99.9 -99.99 -9.99
2020/01/18 14:00 CST    0.87   2.12    4  183    5  67.3  63.9 1018.5 -9.9 -9.999 -99.9 -99.99 -9.99
2020/01/18 14:06 CST    0.86   2.14    4  171    4  67.1  63.9 1018.3 -9.9 -9.999 -99.9 -99.99 -9.99
2020/01/18 14:12 CST    0.86   2.13    6  145    8  67.3  63.9 1018.2 -9.9 -9.999 -99.9 -99.99 -9.99
2020/01/18 14:18 CST    0.85   2.10    5  160    6  67.1  64.0 1018.4 -9.9 -9.999 -99.9 -99.99 -9.99
2020/01/18 14:24 CST    0.84   2.12    4  173    7  66.9  64.0 1018.5 -9.9 -9.999 -99.9 -99.99 -9.99
2020/01/18 14:30 CST    0.84   2.07    5  177    7  66.7  64.0 1018.4 -9.9 -9.999 -99.9 -99.99 -9.99
2020/01/18 14:36 CST    0.83   2.02    3  194    6  66.6  64.0 1018.3 -9.9 -9.999 -99.9 -99.99 -9.99
2020/01/18 14:42 CST    0.82   2.05    3  158    4  66.2  64.0 1018.2 -9.9 -9.999 -99.9 -99.99 -9.99
2020/01/18 14:48 CST    0.82   2.04    2  199    4  67.1  64.0 1018.3 -9.9 -9.999 -99.9 -99.99 -9.99
2020/01/18 14:54 CST    0.81   2.05    4  202    5  67.1  64.0 1018.5 -9.9 -9.999 -99.9 -99.99 -9.99
2020/01/18 15:00 CST    0.81   2.01    8  184    8  67.5  64.0 1018.6 -9.9 -9.999 -99.9 -99.99 -9.99
2020/01/18 15:06 CST    0.80   2.01    8  185    9  67.3  64.0 1018.7 -9.9 -9.999 -99.9 -99.99 -9.99
2020/01/18 15:12 CST    0.79   1.99    8  180    8  67.3  64.0 1018.8 -9.9 -9.999 -99.9 -99.99 -9.99
2020/01/18 15:18 CST    0.79   1.99    6  157    8  67.3  64.0 1018.8 -9.9 -9.999 -99.9 -99.99 -9.99
2020/01/18 15:24 CST    0.78   1.98    8  164    9  66.9  64.0 1018.9 -9.9 -9.999 -99.9 -99.99 -9.99
2020/01/18 15:30 CST    0.78   1.98    9  181    9  66.7  64.0 1019.0 -9.9 -9.999 -99.9 -99.99 -9.99
2020/01/18 15:36 CST    0.77   2.00    9  178    9  66.0  64.0 1019.0 -9.9 -9.999 -99.9 -99.99 -9.99
2020/01/18 15:42 CST    0.77   1.99   11  197   12  66.7  64.0 1019.1 -9.9 -9.999 -99.9 -99.99 -9.99
2020/01/18 15:48 CST    0.77   2.02    8  210   12  66.6  63.9 1019.2 -9.9 -9.999 -99.9 -99.99 -9.99
2020/01/18 15:54 CST    0.76   2.02    7  204    7  66.9  63.9 1019.2 -9.9 -9.999 -99.9 -99.99 -9.99
2020/01/18 16:00 CST    0.76   2.00    3  213    6  66.6  63.9 1019.3 -9.9 -9.999 -99.9 -99.99 -9.99
2020/01/18 16:06 CST    0.75   1.97    4  218    5  66.9  63.9 1019.3 -9.9 -9.999 -99.9 -99.99 -9.99
2020/01/18 16:12 CST    0.75   1.90    1  172    3  66.6  63.9 1019.4 -9.9 -9.999 -99.9 -99.99 -9.99
2020/01/18 16:18 CST    0.75   1.86    7  356    8  67.1  63.9 1019.5 -9.9 -9.999 -99.9 -99.99 -9.99
2020/01/18 16:24 CST    0.74   1.86    7  345    9  67.5  63.7 1019.7 -9.9 -9.999 -99.9 -99.99 -9.99
2020/01/18 16:30 CST    0.74   1.84    3   42    8  67.6  63.7 1019.7 -9.9 -9.999 -99.9 -99.99 -9.99
2020/01/18 16:36 CST    0.73   1.84    1   70    4  67.6  63.7 1019.6 -9.9 -9.999 -99.9 -99.99 -9.99
2020/01/18 16:42 CST    0.73   1.79    2   75    3  67.5  63.7 1019.5 -9.9 -9.999 -99.9 -99.99 -9.99
2020/01/18 16:48 CST    0.73   1.79    6   42    6  67.6  63.7 1019.5 -9.9 -9.999 -99.9 -99.99 -9.99
2020/01/18 16:54 CST    0.72   1.76    4   76    5  67.5  63.7 1019.4 -9.9 -9.999 -99.9 -99.99 -9.99
2020/01/18 17:00 CST    0.72   1.77    5   66    6  67.3  63.7 1019.3 -9.9 -9.999 -99.9 -99.99 -9.99
2020/01/18 17:06 CST    0.72   1.79    5   61    7  67.3  63.7 1019.2 -9.9 -9.999 -99.9 -99.99 -9.99
2020/01/18 17:12 CST    0.72   1.75    3   88    5  67.1  63.9 1019.0 -9.9 -9.999 -99.9 -99.99 -9.99
2020/01/18 17:18 CST    0.71   1.73    2  117    4  67.3  63.9 1018.9 -9.9 -9.999 -99.9 -99.99 -9.99
2020/01/18 17:24 CST    0.71   1.69    5   92    6  67.1  64.0 1019.0 -9.9 -9.999 -99.9 -99.99 -9.99
2020/01/18 17:30 CST    0.71   1.70    6   75    7  66.9  64.0 1019.2 -9.9 -9.999 -99.9 -99.99 -9.99
2020/01/18 17:36 CST    0.71   1.64    1  113    5  66.2  64.2 1019.5 -9.9 -9.999 -99.9 -99.99 -9.99
2020/01/18 17:42 CST    0.71   1.66    0  162    1  66.2  64.2 1019.5 -9.9 -9.999 -99.9 -99.99 -9.99
2020/01/18 17:48 CST    0.71   1.64    4  277    5  66.6  64.0 1020.2 -9.9 -9.999 -99.9 -99.99 -9.99
2020/01/18 17:54 CST    0.71   1.63    1  227    5  66.9  64.2 1020.1 -9.9 -9.999 -99.9 -99.99 -9.99
2020/01/18 18:00 CST    0.71   1.64    1  159    1  67.1  64.2 1019.6 -9.9 -9.999 -99.9 -99.99 -9.99
2020/01/18 18:06 CST    0.71   1.58    1  144    3  66.9  64.2 1019.5 -9.9 -9.999 -99.9 -99.99 -9.99
2020/01/18 18:12 CST    0.72   1.59    4  144    5  67.1  64.2 1019.5 -9.9 -9.999 -99.9 -99.99 -9.99
2020/01/18 18:18 CST    0.72   1.57    3  143    4  67.5  64.2 1019.6 -9.9 -9.999 -99.9 -99.99 -9.99
2020/01/18 18:24 CST    0.72   1.55    2  146    2  67.3  64.2 1019.4 -9.9 -9.999 -99.9 -99.99 -9.99
2020/01/18 18:30 CST    0.73   1.54    2  136    3  66.4  64.2 1019.6 -9.9 -9.999 -99.9 -99.99 -9.99
2020/01/18 18:36 CST    0.73   1.54    1  185    3  65.3  64.2 1020.3 -9.9 -9.999 -99.9 -99.99 -9.99
2020/01/18 18:42 CST    0.74   1.56    8  325   12  66.2  64.2 1020.6 -9.9 -9.999 -99.9 -99.99 -9.99
2020/01/18 18:48 CST    0.74   1.62    9  331   10  66.6  64.2 1020.8 -9.9 -9.999 -99.9 -99.99 -9.99
2020/01/18 18:54 CST    0.75   1.64   10  339   12  66.6  64.0 1020.8 -9.9 -9.999 -99.9 -99.99 -9.99
2020/01/18 19:00 CST    0.76   1.59    8  347    9  66.6  64.0 1021.0 -9.9 -9.999 -99.9 -99.99 -9.99
2020/01/18 19:06 CST    0.76   1.62    7  350    9  66.4  64.0 1021.2 -9.9 -9.999 -99.9 -99.99 -9.99
2020/01/18 19:12 CST    0.77   1.71    9    1   11  66.4  64.0 1021.1 -9.9 -9.999 -99.9 -99.99 -9.99
2020/01/18 19:18 CST    0.78   1.71    9    4   11  66.4  64.2 1021.1 -9.9 -9.999 -99.9 -99.99 -9.99
2020/01/18 19:24 CST    0.79   1.73   11    6   13  66.4  64.2 1021.1 -9.9 -9.999 -99.9 -99.99 -9.99
2020/01/18 19:30 CST    0.80   1.70   11    3   12  66.4  64.2 1021.2 -9.9 -9.999 -99.9 -99.99 -9.99
2020/01/18 19:36 CST    0.81   1.67   11    2   12  66.2  64.2 1021.1 -9.9 -9.999 -99.9 -99.99 -9.99
2020/01/18 19:42 CST    0.82   1.67   11   11   13  66.2  64.2 1021.1 -9.9 -9.999 -99.9 -99.99 -9.99
2020/01/18 19:48 CST    0.82   1.62   11    4   14  66.0  64.2 1021.0 -9.9 -9.999 -99.9 -99.99 -9.99
2020/01/18 19:54 CST    0.83   1.61   13   14   16  65.8  64.4 1020.8 -9.9 -9.999 -99.9 -99.99 -9.99
2020/01/18 20:00 CST    0.84   1.59   14   13   18  65.8  64.4 1020.8 -9.9 -9.999 -99.9 -99.99 -9.99
2020/01/18 20:06 CST    0.85   1.68   14   17   17  65.8  64.4 1020.8 -9.9 -9.999 -99.9 -99.99 -9.99
2020/01/18 20:12 CST    0.86   1.70   16   17   19  65.7  64.4 1020.7 -9.9 -9.999 -99.9 -99.99 -9.99
2020/01/18 20:18 CST    0.87   1.64   19   28   22  65.8  64.4 1020.1 -9.9 -9.999 -99.9 -99.99 -9.99
2020/01/18 20:24 CST    0.88   1.65   19   14   22  65.8  64.2 1021.2 -9.9 -9.999 -99.9 -99.99 -9.99
2020/01/18 20:30 CST    0.88   1.65   18    8   21  65.5  64.2 1021.5 -9.9 -9.999 -99.9 -99.99 -9.99
2020/01/18 20:36 CST    0.89   1.64   18   16   22  65.3  64.2 1021.6 -9.9 -9.999 -99.9 -99.99 -9.99
2020/01/18 20:42 CST    0.90   1.66   17   18   20  65.1  64.2 1021.8 -9.9 -9.999 -99.9 -99.99 -9.99
2020/01/18 20:48 CST    0.90   1.66   16   18   19  64.8  64.2 1021.8 -9.9 -9.999 -99.9 -99.99 -9.99
2020/01/18 20:54 CST    0.91   1.68   17   17   19  64.8  64.2 1021.8 -9.9 -9.999 -99.9 -99.99 -9.99
2020/01/18 21:00 CST    0.91   1.71   17   19   21  64.6  64.2 1021.8 -9.9 -9.999 -99.9 -99.99 -9.99
2020/01/18 21:06 CST    0.92   1.67   16   18   19  64.4  64.2 1022.0 -9.9 -9.999 -99.9 -99.99 -9.99
2020/01/18 21:12 CST    0.92   1.68   15   20   18  64.4  64.2 1022.0 -9.9 -9.999 -99.9 -99.99 -9.99
2020/01/18 21:18 CST    0.92   1.67   16   19   18  64.4  64.2 1022.2 -9.9 -9.999 -99.9 -99.99 -9.99
2020/01/18 21:24 CST    0.92   1.71   19   20   22  64.6  64.2 1022.2 -9.9 -9.999 -99.9 -99.99 -9.99
2020/01/18 21:30 CST    0.93   1.74   16   21   20  64.4  64.2 1022.3 -9.9 -9.999 -99.9 -99.99 -9.99
2020/01/18 21:36 CST    0.93   1.76   16   18   19  64.4  64.0 1022.5 -9.9 -9.999 -99.9 -99.99 -9.99
2020/01/18 21:42 CST    0.92   1.79   17   22   19  64.2  63.9 1022.4 -9.9 -9.999 -99.9 -99.99 -9.99
2020/01/18 21:48 CST    0.92   1.78   18   24   21  64.2  63.7 1022.4 -9.9 -9.999 -99.9 -99.99 -9.99
2020/01/18 21:54 CST    0.92   1.77   17   22   21  64.0  63.7 1022.5 -9.9 -9.999 -99.9 -99.99 -9.99
2020/01/18 22:00 CST    0.92   1.78   16   22   21  64.0  63.7 1022.6 -9.9 -9.999 -99.9 -99.99 -9.99
2020/01/18 22:06 CST    0.91   1.75   16   21   19  64.0  63.7 1022.7 -9.9 -9.999 -99.9 -99.99 -9.99
2020/01/18 22:12 CST    0.91   1.74   15   20   20  63.9  63.5 1022.9 -9.9 -9.999 -99.9 -99.99 -9.99
2020/01/18 22:18 CST    0.90   1.71   16   23   22  63.9  63.5 1022.9 -9.9 -9.999 -99.9 -99.99 -9.99
2020/01/18 22:24 CST    0.90   1.78   17   25   21  63.9  63.5 1023.0 -9.9 -9.999 -99.9 -99.99 -9.99
2020/01/18 22:30 CST    0.89   1.78   17   22   20  63.9  63.5 1023.0 -9.9 -9.999 -99.9 -99.99 -9.99
2020/01/18 22:36 CST    0.88   1.79   17   19   19  63.7  63.5 1022.8 -9.9 -9.999 -99.9 -99.99 -9.99
2020/01/18 22:42 CST    0.87   1.76   17   19   21  63.5  63.5 1022.9 -9.9 -9.999 -99.9 -99.99 -9.99
2020/01/18 22:48 CST    0.86   1.76   18   17   22  63.3  63.5 1022.9 -9.9 -9.999 -99.9 -99.99 -9.99
2020/01/18 22:54 CST    0.85   1.74   17   18   22  63.1  63.5 1022.9 -9.9 -9.999 -99.9 -99.99 -9.99
2020/01/18 23:00 CST    0.84   1.71 -999 -999 -999 -99.9 -99.9 -999.9 -9.9 -9.999 -99.9 -99.99 -9.99
2020/01/18 23:06 CST    0.83   1.73   16   15   20  63.1  63.7 1022.8 -9.9 -9.999 -99.9 -99.99 -9.99
2020/01/18 23:12 CST    0.82 -99.99 -999 -999 -999 -99.9 -99.9 -999.9 -9.9 -9.999 -99.9 -99.99 -9.99
2020/01/18 23:18 CST    0.80 -99.99 -999 -999 -999 -99.9 -99.9 -999.9 -9.9 -9.999 -99.9 -99.99 -9.99
2020/01/18 23:24 CST    0.79 -99.99 -999 -999 -999 -99.9 -99.9 -999.9 -9.9 -9.999 -99.9 -99.99 -9.99
2020/01/18 23:30 CST    0.77 -99.99 -999 -999 -999 -99.9 -99.9 -999.9 -9.9 -9.999 -99.9 -99.99 -9.99
2020/01/18 23:36 CST    0.75 -99.99 -999 -999 -999 -99.9 -99.9 -999.9 -9.9 -9.999 -99.9 -99.99 -9.99
2020/01/18 23:42 CST    0.73 -99.99 -999 -999 -999 -99.9 -99.9 -999.9 -9.9 -9.999 -99.9 -99.99 -9.99
2020/01/18 23:48 CST    0.71 -99.99 -999 -999 -999 -99.9 -99.9 -999.9 -9.9 -9.999 -99.9 -99.99 -9.99
2020/01/18 23:54 CST    0.69 -99.99 -999 -999 -999 -99.9 -99.9 -999.9 -9.9 -9.999 -99.9 -99.99 -9.99
2020/01/19 00:00 CST    0.67 -99.99 -999 -999 -999 -99.9 -99.9 -999.9 -9.9 -9.999 -99.9 -99.99 -9.99
2020/01/19 00:06 CST    0.65 -99.99 -999 -999 -999 -99.9 -99.9 -999.9 -9.9 -9.999 -99.9 -99.99 -9.99
2020/01/19 00:12 CST    0.62 -99.99 -999 -999 -999 -99.9 -99.9 -999.9 -9.9 -9.999 -99.9 -99.99 -9.99
2020/01/19 00:18 CST    0.60 -99.99 -999 -999 -999 -99.9 -99.9 -999.9 -9.9 -9.999 -99.9 -99.99 -9.99
2020/01/19 00:24 CST    0.57 -99.99 -999 -999 -999 -99.9 -99.9 -999.9 -9.9 -9.999 -99.9 -99.99 -9.99
2020/01/19 00:30 CST    0.55 -99.99 -999 -999 -999 -99.9 -99.9 -999.9 -9.9 -9.999 -99.9 -99.99 -9.99
2020/01/19 00:36 CST    0.52 -99.99 -999 -999 -999 -99.9 -99.9 -999.9 -9.9 -9.999 -99.9 -99.99 -9.99
2020/01/19 00:42 CST    0.49 -99.99 -999 -999 -999 -99.9 -99.9 -999.9 -9.9 -9.999 -99.9 -99.99 -9.99
2020/01/19 00:48 CST    0.46 -99.99 -999 -999 -999 -99.9 -99.9 -999.9 -9.9 -9.999 -99.9 -99.99 -9.99
2020/01/19 00:54 CST    0.44 -99.99 -999 -999 -999 -99.9 -99.9 -999.9 -9.9 -9.999 -99.9 -99.99 -9.99
2020/01/19 01:00 CST    0.41 -99.99 -999 -999 -999 -99.9 -99.9 -999.9 -9.9 -9.999 -99.9 -99.99 -9.99
2020/01/19 01:06 CST    0.38 -99.99 -999 -999 -999 -99.9 -99.9 -999.9 -9.9 -9.999 -99.9 -99.99 -9.99
2020/01/19 01:12 CST    0.34 -99.99 -999 -999 -999 -99.9 -99.9 -999.9 -9.9 -9.999 -99.9 -99.99 -9.99
2020/01/19 01:18 CST    0.31 -99.99 -999 -999 -999 -99.9 -99.9 -999.9 -9.9 -9.999 -99.9 -99.99 -9.99
2020/01/19 01:24 CST    0.28 -99.99 -999 -999 -999 -99.9 -99.9 -999.9 -9.9 -9.999 -99.9 -99.99 -9.99
2020/01/19 01:30 CST    0.25 -99.99 -999 -999 -999 -99.9 -99.9 -999.9 -9.9 -9.999 -99.9 -99.99 -9.99
2020/01/19 01:36 CST    0.22 -99.99 -999 -999 -999 -99.9 -99.9 -999.9 -9.9 -9.999 -99.9 -99.99 -9.99
2020/01/19 01:42 CST    0.19 -99.99 -999 -999 -999 -99.9 -99.9 -999.9 -9.9 -9.999 -99.9 -99.99 -9.99
2020/01/19 01:48 CST    0.16 -99.99 -999 -999 -999 -99.9 -99.9 -999.9 -9.9 -9.999 -99.9 -99.99 -9.99
2020/01/19 01:54 CST    0.12 -99.99 -999 -999 -999 -99.9 -99.9 -999.9 -9.9 -9.999 -99.9 -99.99 -9.99
2020/01/19 02:00 CST    0.09 -99.99 -999 -999 -999 -99.9 -99.9 -999.9 -9.9 -9.999 -99.9 -99.99 -9.99
2020/01/19 02:06 CST    0.06 -99.99 -999 -999 -999 -99.9 -99.9 -999.9 -9.9 -9.999 -99.9 -99.99 -9.99
2020/01/19 02:12 CST    0.03 -99.99 -999 -999 -999 -99.9 -99.9 -999.9 -9.9 -9.999 -99.9 -99.99 -9.99
2020/01/19 02:18 CST    0.00 -99.99 -999 -999 -999 -99.9 -99.9 -999.9 -9.9 -9.999 -99.9 -99.99 -9.99
2020/01/19 02:24 CST   -0.03 -99.99 -999 -999 -999 -99.9 -99.9 -999.9 -9.9 -9.999 -99.9 -99.99 -9.99
2020/01/19 02:30 CST   -0.06 -99.99 -999 -999 -999 -99.9 -99.9 -999.9 -9.9 -9.999 -99.9 -99.99 -9.99
2020/01/19 02:36 CST   -0.08 -99.99 -999 -999 -999 -99.9 -99.9 -999.9 -9.9 -9.999 -99.9 -99.99 -9.99
2020/01/19 02:42 CST   -0.11 -99.99 -999 -999 -999 -99.9 -99.9 -999.9 -9.9 -9.999 -99.9 -99.99 -9.99
2020/01/19 02:48 CST   -0.14 -99.99 -999 -999 -999 -99.9 -99.9 -999.9 -9.9 -9.999 -99.9 -99.99 -9.99
2020/01/19 02:54 CST   -0.16 -99.99 -999 -999 -999 -99.9 -99.9 -999.9 -9.9 -9.999 -99.9 -99.99 -9.99
2020/01/19 03:00 CST   -0.19 -99.99 -999 -999 -999 -99.9 -99.9 -999.9 -9.9 -9.999 -99.9 -99.99 -9.99
2020/01/19 03:06 CST   -0.21 -99.99 -999 -999 -999 -99.9 -99.9 -999.9 -9.9 -9.999 -99.9 -99.99 -9.99
2020/01/19 03:12 CST   -0.23 -99.99 -999 -999 -999 -99.9 -99.9 -999.9 -9.9 -9.999 -99.9 -99.99 -9.99
2020/01/19 03:18 CST   -0.25 -99.99 -999 -999 -999 -99.9 -99.9 -999.9 -9.9 -9.999 -99.9 -99.99 -9.99
2020/01/19 03:24 CST   -0.28 -99.99 -999 -999 -999 -99.9 -99.9 -999.9 -9.9 -9.999 -99.9 -99.99 -9.99
2020/01/19 03:30 CST   -0.30 -99.99 -999 -999 -999 -99.9 -99.9 -999.9 -9.9 -9.999 -99.9 -99.99 -9.99
2020/01/19 03:36 CST   -0.31 -99.99 -999 -999 -999 -99.9 -99.9 -999.9 -9.9 -9.999 -99.9 -99.99 -9.99
2020/01/19 03:42 CST   -0.33 -99.99 -999 -999 -999 -99.9 -99.9 -999.9 -9.9 -9.999 -99.9 -99.99 -9.99
2020/01/19 03:48 CST   -0.35 -99.99 -999 -999 -999 -99.9 -99.9 -999.9 -9.9 -9.999 -99.9 -99.99 -9.99
2020/01/19 03:54 CST   -0.36 -99.99 -999 -999 -999 -99.9 -99.9 -999.9 -9.9 -9.999 -99.9 -99.99 -9.99
2020/01/19 04:00 CST   -0.38 -99.99 -999 -999 -999 -99.9 -99.9 -999.9 -9.9 -9.999 -99.9 -99.99 -9.99
2020/01/19 04:06 CST   -0.39 -99.99 -999 -999 -999 -99.9 -99.9 -999.9 -9.9 -9.999 -99.9 -99.99 -9.99
2020/01/19 04:12 CST   -0.41 -99.99 -999 -999 -999 -99.9 -99.9 -999.9 -9.9 -9.999 -99.9 -99.99 -9.99
2020/01/19 04:18 CST   -0.42 -99.99 -999 -999 -999 -99.9 -99.9 -999.9 -9.9 -9.999 -99.9 -99.99 -9.99
2020/01/19 04:24 CST   -0.43 -99.99 -999 -999 -999 -99.9 -99.9 -999.9 -9.9 -9.999 -99.9 -99.99 -9.99
2020/01/19 04:30 CST   -0.44 -99.99 -999 -999 -999 -99.9 -99.9 -999.9 -9.9 -9.999 -99.9 -99.99 -9.99
2020/01/19 04:36 CST   -0.45 -99.99 -999 -999 -999 -99.9 -99.9 -999.9 -9.9 -9.999 -99.9 -99.99 -9.99
2020/01/19 04:42 CST   -0.46 -99.99 -999 -999 -999 -99.9 -99.9 -999.9 -9.9 -9.999 -99.9 -99.99 -9.99
2020/01/19 04:48 CST   -0.47 -99.99 -999 -999 -999 -99.9 -99.9 -999.9 -9.9 -9.999 -99.9 -99.99 -9.99
2020/01/19 04:54 CST   -0.47 -99.99 -999 -999 -999 -99.9 -99.9 -999.9 -9.9 -9.999 -99.9 -99.99 -9.99
2020/01/19 05:00 CST   -0.48 -99.99 -999 -999 -999 -99.9 -99.9 -999.9 -9.9 -9.999 -99.9 -99.99 -9.99
2020/01/19 05:06 CST   -0.48 -99.99 -999 -999 -999 -99.9 -99.9 -999.9 -9.9 -9.999 -99.9 -99.99 -9.99
2020/01/19 05:12 CST   -0.49 -99.99 -999 -999 -999 -99.9 -99.9 -999.9 -9.9 -9.999 -99.9 -99.99 -9.99
2020/01/19 05:18 CST   -0.49 -99.99 -999 -999 -999 -99.9 -99.9 -999.9 -9.9 -9.999 -99.9 -99.99 -9.99